CARTOSAT-2B 1 36795U 10035A 21019.10103179 -.00000601 00000-0 -74834-4 0 9993 2 36795 97.8915 80.8248 0015351 105.3420 254.9532 14.78666229568056 STUDSAT 1 36796U 10035B 21018.76260196 .00000223 00000-0 30783-4 0 9991 2 36796 98.1823 179.9885 0013099 22.2617 337.9164 14.87962348570336 AISSAT 1 1 36797U 10035C 21019.16059280 .00000180 00000-0 27001-4 0 9998 2 36797 98.1967 180.3375 0011988 47.3455 312.8768 14.86419525570165 ALSAT 2A 1 36798U 10035D 21019.10893957 .00000069 00000-0 20693-4 0 9996 2 36798 97.9382 72.1080 0001105 86.2138 273.9204 14.66664171563368 TISAT 1 1 36799U 10035E 21018.79505626 .00000468 00000-0 52809-4 0 9991 2 36799 98.2020 203.5595 0011891 350.0811 10.0169 14.91573476571023 PSLV R/B 1 36800U 10035F 21018.84181099 -.00000207 00000-0 -13034-4 0 9994 2 36800 98.1607 211.0628 0021478 330.7454 29.2561 14.94838873572800